Total_Precipitation_Accumulation
0.96 1.14 0.98 0.65 0.61 0.51 0.45 0.52 0.43 0.28 0.27 0.34 0.31 0.24 0.17 0.16 0.20 0.21 0.21 0.23 0.23 0.27 0.31 0.35 0.43 0.49 0.62 0.68 0.68 0.74 0.80 0.93 1.05 1.16 1.30 1.22 1.16 1.18 1.19 1.16 1.15 1.13 1.20 1.27
1.09 0.97 0.52 0.35 0.42 0.49 0.53 0.61 0.47 0.31 0.26 0.39 0.36 0.27 0.18 0.16 0.18 0.20 0.17 0.20 0.24 0.25 0.30 0.37 0.43 0.48 0.60 0.71 0.70 0.75 0.84 0.93 0.98 1.07 1.18 1.24 1.18 1.20 1.26 1.22 1.20 1.16 1.15 1.20
0.80 0.54 0.29 0.44 0.57 0.68 0.63 0.54 0.43 0.38 0.36 0.44 0.48 0.42 0.24 0.19 0.16 0.17 0.17 0.17 0.24 0.29 0.32 0.37 0.45 0.48 0.58 0.69 0.71 0.74 0.83 0.93 0.98 1.11 1.24 1.35 1.47 1.43 1.42 1.41 1.30 1.19 1.15 1.14
0.57 0.34 0.35 0.54 0.63 0.70 0.68 0.37 0.37 0.42 0.63 0.70 0.58 0.68 0.31 0.22 0.19 0.18 0.17 0.17 0.21 0.27 0.31 0.37 0.43 0.48 0.54 0.60 0.71 0.78 0.87 0.94 0.97 1.15 1.30 1.28 1.39 1.40 1.28 1.20 1.25 1.22 1.16 1.13
0.73 0.41 0.42 0.55 0.46 0.51 0.53 0.33 0.42 0.53 0.72 0.84 0.61 0.67 0.37 0.20 0.21 0.18 0.16 0.16 0.20 0.25 0.25 0.30 0.36 0.39 0.48 0.53 0.66 0.77 0.90 0.99 1.01 1.08 1.27 1.31 1.25 1.24 1.26 1.25 1.23 1.27 1.27 1.20
0.61 0.42 0.48 0.43 0.32 0.39 0.52 0.61 0.73 0.83 1.19 1.41 0.56 0.53 0.42 0.34 0.36 0.25 0.17 0.16 0.21 0.21 0.23 0.27 0.29 0.33 0.45 0.53 0.62 0.72 0.85 0.96 1.01 1.02 1.14 1.29 1.24 1.19 1.20 1.26 1.29 1.28 1.32 1.29
0.77 0.56 0.46 0.40 0.53 0.66 0.88 1.31 1.92 2.05 2.04 1.21 0.29 0.38 0.46 0.36 0.31 0.30 0.23 0.18 0.21 0.21 0.24 0.26 0.25 0.30 0.39 0.46 0.55 0.65 0.78 0.88 0.93 0.95 1.03 1.11 1.21 1.16 1.08 1.07 1.14 1.23 1.29 1.27
0.88 0.74 0.54 0.47 0.59 0.85 0.95 1.15 1.50 1.47 1.00 0.42 0.22 0.36 0.37 0.26 0.21 0.20 0.16 0.16 0.19 0.19 0.20 0.21 0.23 0.29 0.34 0.35 0.40 0.52 0.63 0.79 0.93 0.96 0.98 1.03 1.10 1.19 1.09 1.02 1.02 1.10 1.17 1.13
0.88 0.62 0.39 0.36 0.36 0.55 0.83 0.90 0.75 0.96 0.69 0.46 0.35 0.30 0.23 0.11 0.10 0.12 0.13 0.13 0.17 0.20 0.21 0.20 0.21 0.26 0.30 0.35 0.35 0.43 0.51 0.67 0.88 1.01 1.01 1.01 1.04 1.10 1.10 1.02 0.99 1.02 1.05 1.08
0.93 0.74 0.38 0.34 0.47 0.59 0.67 0.81 0.99 1.35 1.12 0.61 0.35 0.30 0.32 0.20 0.17 0.13 0.14 0.15 0.17 0.20 0.24 0.23 0.21 0.24 0.27 0.32 0.37 0.40 0.47 0.54 0.69 0.90 1.06 1.05 1.02 1.00 1.06 1.07 1.04 1.02 1.01 1.03
0.91 0.95 0.59 0.53 0.75 0.79 0.76 1.03 1.28 1.29 0.95 0.71 0.45 0.41 0.40 0.30 0.25 0.21 0.17 0.17 0.18 0.20 0.23 0.23 0.22 0.22 0.26 0.30 0.39 0.44 0.47 0.52 0.59 0.70 0.88 1.01 1.02 1.03 1.07 1.09 1.05 1.06 1.05 1.03
0.88 1.12 0.78 0.48 0.47 0.47 0.66 0.89 1.10 1.31 0.94 0.54 0.48 0.43 0.32 0.25 0.23 0.20 0.18 0.15 0.15 0.17 0.21 0.22 0.20 0.23 0.27 0.33 0.38 0.47 0.52 0.52 0.56 0.63 0.75 0.88 0.97 1.02 1.06 1.04 1.06 1.12 1.13 1.08
1.27 1.63 1.34 0.89 0.74 0.69 0.79 0.72 0.77 0.92 0.88 0.58 0.46 0.37 0.21 0.16 0.15 0.16 0.17 0.17 0.16 0.16 0.19 0.21 0.22 0.25 0.29 0.34 0.38 0.45 0.52 0.51 0.53 0.64 0.73 0.84 0.95 0.97 1.00 0.95 0.98 1.14 1.26 1.23
1.57 1.65 1.16 0.94 0.78 0.73 0.68 0.55 0.54 0.84 1.02 0.57 0.30 0.26 0.17 0.14 0.14 0.15 0.18 0.19 0.18 0.16 0.17 0.22 0.26 0.27 0.28 0.31 0.37 0.41 0.48 0.53 0.55 0.59 0.71 0.80 0.91 0.91 0.89 0.88 0.88 1.01 1.18 1.28
1.33 1.32 0.60 0.31 0.26 0.34 0.38 0.35 0.39 0.54 0.53 0.43 0.25 0.22 0.20 0.18 0.18 0.19 0.20 0.19 0.18 0.16 0.17 0.20 0.25 0.27 0.32 0.34 0.38 0.40 0.45 0.54 0.60 0.58 0.66 0.71 0.80 0.90 0.88 0.83 0.85 0.94 1.07 1.15
1.22 1.19 0.60 0.32 0.19 0.25 0.31 0.25 0.26 0.30 0.26 0.23 0.17 0.19 0.19 0.18 0.17 0.17 0.17 0.18 0.19 0.17 0.16 0.19 0.22 0.26 0.33 0.38 0.41 0.45 0.47 0.51 0.59 0.59 0.64 0.66 0.75 0.87 0.92 0.84 0.85 0.95 1.05 1.09
1.20 1.21 1.04 0.59 0.26 0.46 0.52 0.31 0.26 0.28 0.26 0.23 0.25 0.26 0.21 0.19 0.18 0.20 0.19 0.20 0.19 0.18 0.17 0.18 0.23 0.27 0.32 0.37 0.38 0.46 0.50 0.53 0.58 0.59 0.61 0.67 0.75 0.80 0.88 0.89 0.89 0.98 1.07 1.09
1.00 1.17 1.41 0.95 0.68 0.94 0.48 0.23 0.22 0.28 0.29 0.25 0.23 0.19 0.19 0.21 0.21 0.23 0.21 0.22 0.21 0.22 0.23 0.21 0.25 0.29 0.30 0.34 0.33 0.38 0.44 0.56 0.63 0.63 0.61 0.66 0.74 0.77 0.85 0.90 0.92 1.02 1.10 1.07
0.55 1.05 1.56 1.29 0.93 0.49 0.27 0.25 0.33 0.41 0.41 0.29 0.21 0.15 0.14 0.16 0.20 0.25 0.21 0.21 0.23 0.24 0.27 0.26 0.26 0.28 0.28 0.31 0.32 0.32 0.37 0.49 0.61 0.66 0.61 0.62 0.70 0.76 0.84 0.89 0.95 1.03 1.11 1.07
0.54 0.98 1.66 1.41 1.02 0.50 0.33 0.23 0.26 0.38 0.53 0.30 0.21 0.19 0.17 0.21 0.32 0.30 0.25 0.22 0.22 0.22 0.24 0.26 0.26 0.25 0.27 0.30 0.32 0.31 0.35 0.43 0.54 0.63 0.55 0.58 0.64 0.69 0.77 0.84 0.93 1.00 1.01 1.00
0.95 1.42 1.60 1.17 0.91 0.38 0.26 0.23 0.28 0.59 0.65 0.33 0.26 0.25 0.25 0.31 0.34 0.29 0.27 0.28 0.27 0.26 0.25 0.24 0.26 0.27 0.30 0.32 0.32 0.32 0.36 0.40 0.49 0.59 0.54 0.57 0.61 0.65 0.73 0.82 0.86 0.93 0.97 0.95
0.78 1.05 1.01 0.89 0.95 0.50 0.29 0.35 0.59 0.68 0.37 0.28 0.27 0.26 0.26 0.26 0.23 0.22 0.24 0.29 0.32 0.29 0.26 0.26 0.26 0.27 0.28 0.30 0.33 0.34 0.37 0.39 0.46 0.55 0.56 0.60 0.66 0.68 0.71 0.77 0.78 0.81 0.92 0.95
0.57 0.75 0.82 0.77 0.63 0.42 0.36 0.45 0.48 0.39 0.33 0.26 0.26 0.26 0.25 0.24 0.23 0.24 0.26 0.30 0.33 0.31 0.29 0.29 0.29 0.27 0.26 0.28 0.33 0.38 0.41 0.41 0.47 0.52 0.54 0.61 0.69 0.72 0.73 0.72 0.75 0.80 0.87 0.94
0.46 0.45 0.55 0.52 0.38 0.29 0.28 0.28 0.28 0.25 0.26 0.25 0.25 0.25 0.25 0.25 0.22 0.24 0.26 0.30 0.32 0.32 0.32 0.32 0.33 0.30 0.28 0.27 0.32 0.39 0.45 0.44 0.48 0.51 0.52 0.58 0.64 0.70 0.74 0.70 0.68 0.72 0.81 0.93
0.37 0.39 0.43 0.39 0.25 0.23 0.22 0.22 0.21 0.20 0.18 0.18 0.19 0.19 0.21 0.22 0.22 0.24 0.26 0.30 0.34 0.35 0.35 0.34 0.35 0.34 0.31 0.30 0.34 0.40 0.44 0.44 0.48 0.46 0.46 0.51 0.54 0.66 0.76 0.76 0.71 0.70 0.72 0.88
0.25 0.32 0.38 0.34 0.25 0.29 0.25 0.21 0.20 0.20 0.19 0.19 0.19 0.17 0.16 0.19 0.21 0.22 0.24 0.28 0.36 0.40 0.38 0.37 0.36 0.35 0.36 0.36 0.39 0.43 0.44 0.44 0.45 0.45 0.44 0.46 0.51 0.59 0.70 0.74 0.77 0.84 0.83 0.85